Voltar ao catálogo

COSMOS 1285 DEB

LostHEO
NORAD 33528·DEBRIS·🇷🇺 Russia

Lançado Aug 4, 1981 de Plesetsk Cosmodrome

Loading…

Próximas Passagens (próximas 24 horas)

TLE

ObsoletoSource: Space-Track

Época: Jan 15, 2012, 14:39 UTC

1 33528U 81071AD  12015.61100863 -.00000655  00000-0  00000+0 0  9998
2 33528  66.8118 104.3087 5805688 105.2661  10.4170  1.98512125 56836

Acompanhe COSMOS 1285 DEB em tempo real com AllMySat

Download on the App Store